CZ-4B DEB, 46484

Orbit data source: Space-Track

CZ-4B DEB, 46484 is space debris in SSO originally from a launch on Sun, 27 Sep 2020 UTC launched from the Taiyaun Space Center, China (TSC). Debris objects in space refer to the collection of defunct objects orbiting the Earth. Examples of debris include non-operational satellites, rocket bodies, and fragments generated from explosions, collisions, or faulty payload assembly.

Loading next visibility...
Identifier
46484, 2020-067G
Orbit
SSO
Country
Flag of CNCN / PRC
Related business
Manufacturer
SAST
Mission
Spacecraft
Bus & Motor
Unknown
Mass
Unknown
Launch date (UTC)
2020-09-27 (5 years ago)
Launch vehicle
Unknown
Launch site
Taiyaun Space Center, China (TSC)
Object type
Payload
Rocket body
Debris
Shape & HBR
Unknown
Radar Cross Section
Small (<0.1 m²)

Expand to show TLE details & history
Last TLE update: 14 hours ago

TLE from 14 hours ago
0 CZ-4B DEB
1 46484U 20067G   25261.10244492  .00005230  00000-0  47945-3 0  9995
2 46484  97.6644 316.1947 0036547 223.9363 135.8951 14.94817330269254
Epoch: 2025-09-18T02:27Z
TLE epoch observation values (Epoch: 2025-09-18T02:27:31.241Z)
Latitude
0.00003°
Longitude
-77.95433°
Altitude
604.305 km
Speed
7.547 km/s
True Right ascension
21h 04m 46s
True Declination
0° 00' 00"
Sunlit
Object was in full shadow at epoch
Visualization orbit readout
Latitude
Unknown
Longitude
Unknown
Altitude
Unknown
Speed
Unknown
Apparent Right ascension
Unknown
Apparent Declination
Unknown
Sunlit
N/A
Visualization observer readout
Local Sidereal Time
09:04:55
Azimuth
Unknown
Elevation
Unknown
Doppler factor
Unknown
Orbital elements
Apogee altitude
605.38 km
Perigee altitude
554.521 km
Semi-major axis
6,958.087 km
Eccentricity
0.00365
Inclination
97.6644°
RAAN
316.1947°
Arg. of periapsis
223.9363°
True anomaly
136.18562°
Mean anomaly
135.8951°
Eccentric anomaly
136.04045°
Mean motion
3.73946 °/min
Orbital period
96.27 mins
BSTAR
0.00047945
Loading maneuver chart data...
Computing Atmospheric mass density...
Loading historical data...
Loading historical data...
Loading historical data...
Loading historical data...
Loading historical data...
Loading historical data...
Loading historical data...

Documentation

Showing up to 5 results
|